Wind_Speed
10 10 9 8 7 7 7 7 7 7 8 10 9 7 6 4 1 2 5 5 5 6 6 4 3 5 6 6 7 7 9 10 10 10 7 7 8 9 10 11 11 12
10 9 8 7 7 7 7 6 6 6 5 3 2 5 5 5 3 5 5 4 5 6 7 6 4 5 6 8 10 9 9 11 11 10 9 10 10 10 11 13 13 11
10 9 8 8 8 7 6 4 3 3 1 1 5 5 5 7 6 4 5 5 6 6 5 7 6 5 6 9 10 9 10 12 10 9 10 11 10 10 10 12 14 12
9 9 9 8 7 6 5 5 2 2 2 1 4 5 7 9 9 7 7 6 8 6 4 6 7 7 7 9 10 9 10 10 9 9 10 10 9 9 10 9 11 12
9 9 8 7 6 5 5 5 3 4 4 4 7 7 7 11 11 10 9 8 9 8 7 10 11 11 11 10 9 9 9 10 11 11 9 8 8 9 10 10 10 11
10 9 8 7 5 5 4 5 5 5 5 9 14 11 9 11 11 11 11 10 9 11 13 14 13 12 12 11 10 10 10 10 12 12 10 8 9 10 10 10 11 10
10 9 8 6 4 2 5 7 6 8 8 11 16 13 10 9 9 9 9 9 9 11 12 12 12 12 11 11 11 11 11 11 11 13 13 11 11 12 11 11 12 11
10 8 7 6 5 5 7 6 6 12 10 9 12 10 8 7 6 8 9 8 8 9 9 9 10 10 10 10 11 11 11 11 12 14 14 13 12 13 13 13 14 14
9 7 7 6 4 3 7 8 9 10 8 8 8 7 6 6 6 8 8 7 6 6 7 8 9 9 9 10 10 11 12 12 12 13 13 13 13 13 13 14 14 14
9 8 6 3 3 8 12 11 9 7 7 7 6 6 6 7 8 8 7 6 6 7 8 8 8 8 9 9 10 12 13 14 14 14 13 14 14 13 13 14 14 13
9 8 6 4 5 7 9 9 7 7 7 7 7 7 6 6 6 6 6 7 7 7 7 8 8 8 7 8 10 12 13 15 16 15 15 14 14 14 14 14 14 13
9 8 6 5 5 6 7 6 6 7 7 8 7 5 5 6 5 5 6 7 7 7 7 7 7 6 4 5 8 11 13 14 15 15 15 15 15 14 14 14 13 12
9 8 7 6 6 6 6 5 5 6 7 7 5 4 4 6 6 7 7 7 7 7 6 7 7 4 2 3 7 10 12 12 13 15 15 15 15 15 14 13 13 13
9 8 7 7 7 6 5 6 7 7 7 5 3 3 4 5 5 6 7 6 6 7 6 7 8 1 4 5 8 9 10 11 12 13 15 15 16 16 15 14 14 15
9 8 7 6 6 6 6 7 6 6 6 3 5 4 3 2 4 6 6 6 6 6 6 8 7 2 5 7 8 8 10 11 12 13 14 15 15 16 16 15 15 15
8 7 6 6 5 5 5 5 3 4 3 1 5 5 2 2 5 6 4 4 4 4 5 9 5 3 4 8 9 10 12 12 13 14 14 15 15 15 16 14 13 13
6 6 5 4 4 4 3 3 2 2 2 3 4 5 4 3 6 5 1 2 3 3 6 9 5 3 6 10 10 12 14 14 15 14 14 14 14 14 15 14 15 15
6 5 4 4 4 2 3 3 2 2 3 3 2 3 4 4 4 3 2 2 5 5 8 8 4 4 7 9 11 13 14 16 16 14 13 14 14 14 15 15 16 16
5 5 4 4 4 2 3 3 3 4 3 2 0 1 2 2 4 5 2 3 4 5 8 6 2 4 8 9 11 13 16 17 17 14 14 14 14 15 15 16 16 17
5 5 3 2 2 2 4 4 4 4 3 2 1 1 0 1 3 4 3 4 3 5 8 4 1 4 9 9 11 14 17 17 15 14 14 14 15 16 16 17 18 19
5 4 2 2 2 2 3 4 4 3 2 2 1 1 1 2 3 3 3 6 6 7 8 4 3 6 9 9 11 14 17 17 15 14 15 15 16 17 18 19 19 19
5 4 2 2 3 3 4 4 2 2 3 3 2 2 1 2 3 5 6 8 8 7 7 6 6 7 7 9 12 15 18 18 16 15 16 16 17 17 18 18 19 19
4 3 2 3 3 3 3 2 2 3 3 3 2 1 1 2 4 5 6 7 7 6 7 8 6 4 5 10 13 16 18 19 17 16 16 16 17 17 17 19 20 19
4 3 3 3 3 2 2 3 3 2 3 3 1 0 1 2 4 5 7 8 7 6 7 7 5 3 7 11 14 16 18 19 19 17 16 16 16 17 19 20 20 20
5 4 3 2 1 1 2 2 3 4 3 2 1 3 4 5 7 8 9 8 7 6 6 6 5 6 9 12 15 16 16 17 18 17 16 16 17 19 20 20 19 19
3 3 3 2 2 4 4 5 5 4 3 3 4 6 8 9 8 8 8 6 6 6 5 6 6 8 10 12 15 16 15 16 16 16 16 17 18 19 19 19 19 18
Wind_Direction
164 165 159 159 166 169 170 175 193 213 223 233 222 187 158 155 96 63 116 83 55 77 57 31 46 23 1 5 22 18 6 5 357 345 346 347 339 338 338 333 330 332
152 149 145 137 138 150 162 180 210 230 245 262 154 112 95 110 84 31 57 58 43 69 54 35 32 7 6 22 23 14 1 357 348 341 348 353 347 341 335 332 329 332
141 141 138 132 136 146 151 171 234 275 280 69 86 74 56 99 110 52 73 72 33 37 24 11 10 357 6 18 17 11 354 343 335 337 347 348 343 336 333 332 332 336
137 135 135 137 138 138 152 171 186 50 75 90 101 76 36 58 73 59 75 66 25 16 355 359 10 16 21 15 6 0 347 335 339 356 359 351 341 330 326 329 329 328
138 136 136 136 134 154 179 173 139 121 121 80 87 93 53 47 49 43 49 39 12 3 11 24 25 22 21 12 1 355 347 340 341 347 350 347 340 330 326 326 315 307
137 136 135 138 162 199 182 133 114 122 121 81 78 80 60 48 38 32 39 31 10 4 12 21 20 15 10 3 1 1 357 344 332 334 344 347 339 329 323 316 308 307
136 137 137 147 177 162 124 133 107 79 72 68 70 68 54 47 36 34 40 28 13 10 11 13 11 9 6 0 0 0 353 339 334 347 354 346 332 325 322 319 325 338
130 131 134 147 164 139 135 144 85 69 69 64 66 64 56 51 40 38 38 28 21 16 10 8 5 3 1 1 359 356 353 347 347 352 347 337 333 332 333 337 344 351
120 123 137 158 179 127 110 106 82 70 70 69 66 60 56 51 38 40 39 25 15 15 12 5 2 2 0 4 5 2 1 357 353 351 344 338 338 337 338 342 346 345
127 132 144 152 85 61 67 80 88 79 68 66 61 44 42 49 43 41 36 17 10 14 13 4 1 3 2 7 15 14 9 3 357 352 346 339 337 339 341 341 343 339
131 135 135 110 92 83 77 77 80 77 65 56 57 43 36 49 48 34 24 20 18 11 5 3 2 359 8 25 27 21 13 3 355 349 344 339 337 339 339 338 339 334
129 133 129 108 99 99 94 83 75 80 71 55 53 47 44 48 33 14 19 19 12 5 1 1 355 352 16 39 24 15 11 2 352 346 341 337 333 334 332 329 331 332
133 133 123 109 101 97 96 86 78 84 77 58 35 18 44 48 26 9 10 8 1 3 7 353 338 342 51 33 14 11 10 6 354 342 336 334 330 328 325 323 326 329
134 129 121 112 105 105 98 80 72 73 70 52 355 357 39 49 32 6 354 359 2 9 16 348 330 8 100 40 20 13 5 3 354 338 331 329 325 321 319 320 322 322
131 129 128 123 115 109 93 76 72 73 67 9 310 341 15 2 358 352 351 6 10 17 13 338 324 96 85 29 19 13 2 357 346 335 326 322 321 319 317 316 317 318
136 134 133 133 121 103 92 91 95 94 96 278 297 318 316 310 341 354 12 14 2 19 359 335 333 104 47 13 14 8 1 353 340 332 325 321 319 315 311 311 315 317
141 139 139 138 122 107 122 148 157 149 180 245 285 295 292 325 340 335 337 333 341 13 350 340 1 60 8 5 8 0 357 352 342 332 325 321 317 311 311 317 319 318
149 150 155 146 131 146 194 201 210 230 259 281 299 301 305 330 324 279 236 337 353 1 348 340 354 15 2 2 0 356 356 351 343 333 323 318 316 313 315 316 314 314
156 158 164 149 145 202 237 244 251 247 262 287 350 319 305 298 279 255 256 350 350 342 339 333 340 10 4 0 358 357 355 350 343 332 322 316 316 316 316 317 319 321
161 159 161 154 159 215 248 266 270 254 259 280 273 293 128 169 253 264 297 348 350 342 342 347 80 19 359 356 359 357 352 349 343 333 325 321 321 322 323 324 324 322
164 157 161 197 195 220 250 258 258 258 300 340 0 26 112 183 256 299 354 13 16 4 354 4 20 356 350 354 357 353 350 350 344 333 329 326 323 324 325 323 321 319
169 165 180 219 228 259 264 256 261 307 336 12 66 85 86 272 305 340 2 11 12 1 353 355 342 331 342 354 352 348 348 350 344 334 330 327 324 325 325 322 321 320
167 165 191 220 232 270 296 327 357 2 14 40 67 84 14 341 341 352 6 9 7 2 356 348 326 305 337 352 348 344 345 349 350 341 333 331 329 328 326 323 320 317
165 164 184 214 223 258 330 0 20 53 74 73 61 283 284 332 339 355 19 17 5 0 352 337 314 308 339 345 341 339 341 349 353 348 339 336 335 330 327 324 321 319
172 155 145 166 160 41 14 58 90 93 87 78 8 333 359 21 12 7 15 10 355 350 343 333 329 327 332 335 335 336 341 345 350 350 344 338 335 330 328 327 326 326
154 122 129 146 109 90 95 106 105 96 82 50 19 8 11 17 11 2 358 350 344 341 332 332 334 325 324 329 331 334 337 339 346 351 344 336 333 329 326 325 327 327
Height
797 798 799 800 801 801 801 802 802 802 802 801 801 802 802 803 803 803 803 803 804 804 805 806 806 807 807 807 807 807 807 807 807 807 806 807 807 807 807 806 805 805
796 797 798 799 799 800 801 801 801 801 801 800 800 801 801 802 803 803 803 804 804 805 805 806 806 806 806 806 806 806 806 806 806 806 806 806 806 806 807 806 805 805
796 797 798 799 799 800 801 802 801 801 801 800 800 801 801 802 803 803 804 804 805 805 805 805 805 805 806 805 805 806 806 806 806 806 805 806 806 806 806 806 805 804
797 798 798 800 800 801 802 802 802 801 801 801 801 802 802 802 803 804 804 805 805 805 805 805 805 805 805 805 805 806 806 806 805 805 805 805 806 806 805 805 805 804
797 798 799 801 801 802 802 802 802 801 801 801 801 802 803 803 803 804 806 806 806 806 805 805 806 806 806 805 805 806 806 806 805 805 805 805 805 805 804 804 804 803
799 799 801 802 802 802 801 801 802 801 802 802 801 803 804 804 805 806 807 807 807 807 806 806 806 806 806 806 806 806 806 806 805 805 804 804 804 804 803 803 802 801
800 800 801 802 802 802 801 802 802 802 803 803 803 805 806 806 807 808 808 808 808 808 807 808 808 807 807 807 806 806 806 806 805 804 804 804 803 803 802 802 801 800
800 801 802 802 802 802 802 802 802 803 804 805 805 807 808 808 809 809 809 810 809 809 809 809 809 808 808 807 807 807 806 806 805 805 805 804 803 802 801 801 800 799
801 802 802 802 802 802 801 802 803 805 806 807 807 808 809 809 810 810 810 810 810 810 810 810 809 809 809 808 808 808 807 806 806 806 805 804 803 802 801 801 800 800
802 802 803 803 803 803 802 803 805 807 808 808 809 810 810 810 811 810 811 811 811 810 810 810 809 809 809 808 808 808 808 807 807 806 805 804 803 803 802 801 801 800
803 803 804 803 803 804 804 806 807 808 809 810 811 811 812 812 811 811 811 811 810 810 810 810 810 809 809 809 808 808 808 808 807 806 806 805 804 803 802 802 801 800
803 803 804 804 804 805 806 808 809 809 811 812 812 812 812 812 812 811 811 811 811 810 810 810 810 809 809 808 809 808 808 808 808 807 806 805 804 803 802 802 801 800
803 803 804 805 805 807 808 809 810 812 813 813 813 813 813 812 812 812 811 811 811 810 810 810 810 809 809 808 808 808 808 808 807 807 806 805 804 803 802 802 801 800
803 804 804 805 807 808 809 811 812 813 814 814 813 812 813 813 812 812 812 811 811 810 810 810 809 809 809 808 808 808 808 807 807 807 806 805 804 803 802 801 800 800
803 804 805 806 807 808 810 812 813 814 815 814 812 812 813 813 812 812 811 811 811 811 810 810 809 809 808 808 808 808 807 807 807 806 805 804 803 802 801 800 800 799
803 804 805 806 808 809 810 811 812 813 814 813 811 812 812 812 813 812 811 811 811 810 810 810 809 808 808 808 808 807 807 807 806 805 805 804 803 801 800 799 799 798
804 804 805 807 808 809 810 810 811 812 813 812 811 812 813 812 812 812 811 811 810 810 810 810 809 808 808 808 807 807 806 806 805 804 803 803 802 801 800 799 798 797
804 804 806 807 808 809 810 810 811 811 811 811 811 813 813 812 812 811 810 810 810 810 810 809 809 808 808 808 807 807 806 805 805 804 803 802 801 800 799 798 797 796
804 805 806 808 809 809 810 810 811 811 810 811 812 813 813 812 811 810 810 810 809 810 810 809 808 808 808 808 807 806 806 805 804 803 802 801 800 799 798 797 796 795
804 805 806 808 809 810 810 810 810 810 811 812 812 812 811 810 810 810 809 809 809 809 809 808 808 808 808 807 807 806 806 804 804 803 802 801 800 798 797 796 795 795
804 805 807 807 808 810 810 809 809 810 811 811 811 811 810 810 810 809 809 809 809 809 809 808 808 808 807 807 807 806 805 804 804 803 801 800 799 798 797 796 795 794
805 805 806 807 807 808 808 807 808 809 810 810 809 810 810 809 809 809 808 808 809 809 809 809 808 808 808 807 807 806 805 804 803 802 801 800 798 797 796 795 794 793
804 805 806 806 806 806 807 807 807 808 809 809 809 809 809 809 809 808 808 808 809 809 809 809 808 808 808 807 806 806 805 804 803 802 800 799 798 797 795 794 793 791
804 805 805 805 805 806 807 807 808 808 808 809 809 809 809 809 809 808 808 809 809 809 809 809 809 808 808 807 806 806 805 804 803 801 800 799 797 796 794 793 791 790
803 803 804 805 806 807 807 807 808 808 809 809 809 809 809 809 809 809 809 809 809 810 809 810 809 808 808 807 806 805 804 803 802 801 799 798 796 795 793 791 790 789
802 803 803 804 806 807 807 808 808 809 809 809 809 809 809 809 809 810 810 810 810 810 809 810 809 808 807 807 806 805 804 803 802 800 799 798 796 794 792 790 789 788